H1 CPF 2 NER 2022 3 12 9 071 01 glonass134 H2 1407501 9134 40315 2022 3 12 0 0 0 2022 3 15 23 45 0 900 1 1 0 0 0 1 H9 10 0 59650 0.00000 0 -10144834.093 5581230.731 22745555.320 10 0 59650 900.00000 0 -10956465.521 2892279.397 22863729.986 10 0 59650 1800.00000 0 -11950953.944 278306.058 22538404.802 10 0 59650 2700.00000 0 -13099204.573 -2199044.371 21775608.225 10 0 59650 3600.00000 0 -14362086.351 -4484613.730 20589864.084 10 0 59650 4500.00000 0 -15692009.313 -6531785.609 19003932.971 10 0 59650 5400.00000 0 -17034880.506 -8304184.290 17048392.352 10 0 59650 6300.00000 0 -18332358.069 -9776946.365 14761061.567 10 0 59650 7200.00000 0 -19524309.712 -10937511.042 12186281.211 10 0 59650 8100.00000 0 -20551372.442 -11785895.276 9374059.528 10 0 59650 9000.00000 0 -21357505.136 -12334441.460 6379101.588 10 0 59650 9900.00000 0 -21892425.036 -12607047.831 3259740.038 10 0 59650 10800.00000 0 -22113823.472 -12637914.136 76788.675 10 0 59650 11700.00000 0 -21989265.070 -12469856.138 -3107657.756 10 0 59650 12600.00000 0 -21497687.899 -12152261.434 -6231452.441 10 0 59650 13500.00000 0 -20630439.109 -11738774.847 -9233628.219 10 0 59650 14400.00000 0 -19391800.604 -11284813.563 -12055606.035 10 0 59650 15300.00000 0 -17798981.458 -10845019.567 -14642354.485 10 0 59650 16200.00000 0 -15881576.858 -10470759.576 -16943476.124 10 0 59650 17100.00000 0 -13680516.466 -10207780.323 -18914198.080 10 0 59650 18000.00000 0 -11246547.014 -10094119.932 -20516246.841 10 0 59650 18900.00000 0 -8638313.747 -10158364.632 -21718590.051 10 0 59650 19800.00000 0 -5920122.057 -10418324.739 -22498031.282 10 0 59650 20700.00000 0 -3159473.925 -10880185.410 -22839647.096 10 0 59650 21600.00000 0 -424482.543 -11538167.112 -22737059.232 10 0 59650 22500.00000 0 2218726.992 -12374708.857 -22192538.165 10 0 59650 23400.00000 0 4708523.095 -13361165.058 -21216937.659 10 0 59650 24300.00000 0 6990076.137 -14458985.234 -19829463.247 10 0 59650 25200.00000 0 9017375.640 -15621325.768 -18057280.546 10 0 59650 26100.00000 0 10754874.526 -16795024.996 -15934972.275 10 0 59650 27000.00000 0 12178694.666 -17922858.160 -13503855.460 10 0 59650 27900.00000 0 13277346.447 -18945977.421 -10811172.634 10 0 59650 28800.00000 0 14051935.160 -19806434.769 -7909173.090 10 0 59650 29700.00000 0 14515848.403 -20449682.600 -4854101.964 10 0 59650 30600.00000 0 14693939.936 -20826947.916 -1705116.413 10 0 59650 31500.00000 0 14621246.026 -20897381.550 1476850.555 10 0 59650 32400.00000 0 14341289.417 -20629893.256 4630257.428 10 0 59650 33300.00000 0 13904042.775 -20004596.558 7694131.039 10 0 59650 34200.00000 0 13363637.212 -19013803.339 10609231.191 10 0 59650 35100.00000 0 12775911.767 -17662526.592 13319181.730 10 0 59650 36000.00000 0 12195906.048 -15968469.871 15771547.469 10 0 59650 36900.00000 0 11675400.460 -13961502.893 17918837.269 10 0 59650 37800.00000 0 11260606.410 -11682643.651 19719415.044 10 0 59650 38700.00000 0 10990102.801 -9182587.407 21138302.006 10 0 59650 39600.00000 0 10893105.068 -6519841.534 22147855.191 10 0 59650 40500.00000 0 10988139.574 -3758541.187 22728309.469 10 0 59650 41400.00000 0 11282179.714 -966034.013 22868172.337 10 0 59650 42300.00000 0 11770281.238 1789668.023 22564463.206 10 0 59650 43200.00000 0 12435733.897 4442465.916 21822791.449 10 0 59650 44100.00000 0 13250725.157 6930674.388 20657270.181 10 0 59650 45000.00000 0 14177490.345 9199342.986 19090265.632 10 0 59650 45900.00000 0 15169903.086 11202301.240 17151985.024 10 0 59650 46800.00000 0 16175440.936 12903842.354 14879908.958 10 0 59650 47700.00000 0 17137444.728 14279974.425 12318077.660 10 0 59650 48600.00000 0 17997576.976 15319185.939 9516243.547 10 0 59650 49500.00000 0 18698375.413 16022692.591 6528905.753 10 0 59650 50400.00000 0 19185792.819 16404154.266 3414245.236 10 0 59650 51300.00000 0 19411614.177 16488873.835 232981.653 10 0 59650 52200.00000 0 19335646.827 16312511.797 -2952824.750 10 0 59650 53100.00000 0 18927588.610 15919371.797 -6081001.164 10 0 59650 54000.00000 0 18168492.688 15360330.979 -9090494.382 10 0 59650 54900.00000 0 17051765.018 14690504.564 -11922580.980 10 0 59650 55800.00000 0 15583650.754 13966745.640 -14522029.848 10 0 59650 56700.00000 0 13783188.023 13245088.257 -16838192.662 10 0 59650 57600.00000 0 11681630.569 12578244.005 -18825999.735 10 0 59650 58500.00000 0 9321363.746 12013259.643 -20446840.956 10 0 59650 59400.00000 0 6754359.924 11589435.834 -21669314.525 10 0 59650 60300.00000 0 4040238.832 11336595.297 -22469829.250 10 0 59650 61200.00000 0 1244014.898 11273773.155 -22833049.553 10 0 59650 62100.00000 0 -1566373.675 11408383.814 -22752175.843 10 0 59650 63000.00000 0 -4322650.800 11735898.050 -22229056.337 10 0 59650 63900.00000 0 -6958795.713 12240042.210 -21274129.802 10 0 59650 64800.00000 0 -9413536.444 12893509.308 -19906201.994 10 0 59650 65700.00000 0 -11632641.163 13659150.393 -18152061.579 10 0 59650 66600.00000 0 -13570913.938 14491594.588 -16045944.266 10 0 59650 67500.00000 0 -15193814.262 15339228.621 -13628856.504 10 0 59650 68400.00000 0 -16478635.565 16146451.957 -10947772.468 10 0 59650 69300.00000 0 -17415196.301 16856112.585 -8054720.262 10 0 59650 70200.00000 0 -18006017.502 17412021.300 -5005775.043 10 0 59650 71100.00000 0 -18265981.863 17761439.416 -1859978.265 10 0 59650 72000.00000 0 -18221490.572 17857436.182 1321796.462 10 0 59650 72900.00000 0 -17909154.793 17661017.769 4478009.721 10 0 59650 73800.00000 0 -17374077.533 17142939.222 7547633.227 10 0 59650 74700.00000 0 -16667798.278 16285123.954 10471315.556 10 0 59650 75600.00000 0 -15845986.452 15081631.434 13192515.372 10 0 59650 76500.00000 0 -14965979.795 13539132.223 15658581.456 10 0 59650 77400.00000 0 -14084270.029 11676869.681 17821759.815 10 0 59650 78300.00000 0 -13254040.220 9526108.459 19640109.565 10 0 59650 79200.00000 0 -12522856.092 7129090.820 21078310.809 10 0 59650 80100.00000 0 -11930607.369 4537541.912 22108349.481 10 0 59650 81000.00000 0 -11507785.048 1810783.515 22710066.244 10 0 59650 81900.00000 0 -11274166.947 -986468.127 22871558.638 10 0 59650 82800.00000 0 -11237967.306 -3786531.439 22589428.067 10 0 59650 83700.00000 0 -11395487.262 -6521317.083 21868865.773 10 0 59650 84600.00000 0 -11731282.490 -9124909.603 20723574.628 10 0 59650 85500.00000 0 -12218842.788 -11536066.949 19175526.459 10 0 59651 0.00000 0 -12821756.920 -13700534.389 17254557.866 10 0 59651 900.00000 0 -13495315.771 -15573077.463 14997809.296 10 0 59651 1800.00000 0 -14188486.783 -17119145.660 12449019.210 10 0 59651 2700.00000 0 -14846178.232 -18316100.266 9657682.205 10 0 59651 3600.00000 0 -15411696.993 -19153950.859 6678089.105 10 0 59651 4500.00000 0 -15829295.504 -19635569.742 3568266.496 10 0 59651 5400.00000 0 -16046698.734 -19776374.359 388836.937 10 0 59651 6300.00000 0 -16017502.208 -19603490.888 -2798176.984 10 0 59651 7200.00000 0 -15703337.232 -19154434.563 -5930579.798 10 0 59651 8100.00000 0 -15075709.199 -18475363.500 -8947235.698 10 0 59651 9000.00000 0 -14117428.828 -17618981.298 -11789280.399 10 0 59651 9900.00000 0 -12823573.877 -16642179.006 -14401286.574 10 0 59651 10800.00000 0 -11201939.203 -15603518.288 -16732358.389 10 0 59651 11700.00000 0 -9272955.310 -14560664.207 -18737132.477 10 0 59651 12600.00000 0 -7069078.526 -13567877.856 -20376664.928 10 0 59651 13500.00000 0 -4633678.643 -12673675.962 -21619186.840 10 0 59651 14400.00000 0 -2019471.201 -11918756.767 -22440714.079 10 0 59651 15300.00000 0 713439.166 -11334279.547 -22825500.172 10 0 59651 16200.00000 0 3499821.872 -10940569.364 -22766324.868 10 0 59651 17100.00000 0 6271795.172 -10746300.165 -22264614.256 10 0 59651 18000.00000 0 8961409.277 -10748188.708 -21330391.733 10 0 59651 18900.00000 0 11503230.732 -10931210.053 -19982062.457 10 0 59651 19800.00000 0 13836821.481 -11269323.378 -18246036.903 10 0 59651 20700.00000 0 15909010.893 -11726675.608 -16156202.133 10 0 59651 21600.00000 0 17675868.206 -12259230.533 -13753251.999 10 0 59651 22500.00000 0 19104295.620 -12816753.711 -11083889.919 10 0 59651 23400.00000 0 20173178.085 -13345068.870 -8199920.041 10 0 59651 24300.00000 0 20874044.440 -13788490.705 -5157244.456 10 0 59651 25200.00000 0 21211214.702 -14092331.895 -2014785.578 10 0 59651 26100.00000 0 21201429.401 -14205379.441 1166645.872 10 0 59651 27000.00000 0 20872978.147 -14082236.889 4325516.103 10 0 59651 27900.00000 0 20264364.993 -13685434.766 7400745.152 10 0 59651 28800.00000 0 19422567.034 -12987221.161 10332873.622 10 0 59651 29700.00000 0 18400959.144 -11970957.650 13065197.951 10 0 59651 30600.00000 0 17256991.285 -10632061.844 15544853.485 10 0 59651 31500.00000 0 16049714.765 -8978456.511 17723825.571 10 0 59651 32400.00000 0 14837259.935 -7030505.162 19559870.292 10 0 59651 33300.00000 0 13674369.713 -4820434.986 21017327.974 10 0 59651 34200.00000 0 12610091.121 -2391268.898 22067814.366 10 0 59651 35100.00000 0 11685720.662 204691.533 22690776.415 10 0 59651 36000.00000 0 10933089.107 2907772.059 22873901.796 10 0 59651 36900.00000 0 10373257.626 5653144.196 22613373.620 10 0 59651 37800.00000 0 10015680.442 8373266.578 21913964.343 10 0 59651 38700.00000 0 9857870.160 11000450.019 20788965.597 10 0 59651 39600.00000 0 9885581.211 13469441.139 19259953.512 10 0 59651 40500.00000 0 10073505.256 15719918.027 17356392.123 10 0 59651 41400.00000 0 10386450.844 17698794.223 15115080.602 10 0 59651 42300.00000 0 10780958.926 19362234.391 12579453.296 10 0 59651 43200.00000 0 11207286.906 20677296.585 9798744.762 10 0 59651 44100.00000 0 11611677.655 21623131.131 6827035.109 10 0 59651 45000.00000 0 11938817.111 22191684.481 3722194.011 10 0 59651 45900.00000 0 12134375.222 22387877.437 544744.298 10 0 59651 46800.00000 0 12147520.871 22229249.469 -2643331.778 10 0 59651 47700.00000 0 11933301.981 21745083.980 -5779818.713 10 0 59651 48600.00000 0 11454787.453 20975051.864 -8803500.612 10 0 59651 49500.00000 0 10684877.771 19967431.709 -11655374.661 10 0 59651 50400.00000 0 9607705.362 18776983.378 -14279819.416 10 0 59651 51300.00000 0 8219563.709 17462566.667 -16625693.394 10 0 59651 52200.00000 0 6529324.647 16084607.553 -18647341.161 10 0 59651 53100.00000 0 4558325.607 14702520.805 -20305486.391 10 0 59651 54000.00000 0 2339731.367 13372199.015 -21567994.265 10 0 59651 54900.00000 0 -82602.628 12143674.683 -22410488.681 10 0 59651 55800.00000 0 -2655717.094 11059053.902 -22816813.051 10 0 59651 56700.00000 0 -5319518.877 10150807.898 -22779327.008 10 0 59651 57600.00000 0 -8009051.218 9440492.910 -22299034.771 10 0 59651 58500.00000 0 -10656969.241 8937950.276 -21385544.306 10 0 59651 59400.00000 0 -13196117.652 8641018.017 -20056859.748 10 0 59651 60300.00000 0 -15562103.902 8535763.494 -18339012.602 10 0 59651 61200.00000 0 -17695760.706 8597224.935 -16265540.166 10 0 59651 62100.00000 0 -19545396.986 8790628.408 -13876822.295 10 0 59651 63000.00000 0 -21068745.462 9073027.256 -11219290.022 10 0 59651 63900.00000 0 -22234527.861 9395293.694 -8344521.764 10 0 59651 64800.00000 0 -23023574.820 9704378.010 -5308244.654 10 0 59651 65700.00000 0 -23429455.992 9945740.000 -2169260.089 10 0 59651 66600.00000 0 -23458596.034 10065850.480 1011686.144 10 0 59651 67500.00000 0 -23129873.304 10014658.110 4173068.028 10 0 59651 68400.00000 0 -22473719.259 9747918.362 7253756.160 10 0 59651 69300.00000 0 -21530756.855 9229287.364 10194185.510 10 0 59651 70200.00000 0 -20350035.049 8432093.097 12937492.714 10 0 59651 71100.00000 0 -18986932.831 7340709.627 15430602.154 10 0 59651 72000.00000 0 -17500819.604 5951476.423 17625240.982 10 0 59651 72900.00000 0 -15952568.584 4273123.265 19478864.633 10 0 59651 73800.00000 0 -14402025.804 2326681.363 20955475.904 10 0 59651 74700.00000 0 -12905539.195 144882.333 22026322.364 10 0 59651 75600.00000 0 -11513649.799 -2228932.565 22670458.993 10 0 59651 76500.00000 0 -10269040.745 -4742350.373 22875165.033 10 0 59651 77400.00000 0 -9204829.296 -7335810.525 22636206.371 10 0 59651 78300.00000 0 -8343273.446 -9944837.893 21957937.394 10 0 59651 79200.00000 0 -7694947.686 -12502494.479 20853238.833 10 0 59651 80100.00000 0 -7258423.447 -14941949.606 19343291.055 10 0 59651 81000.00000 0 -7020468.781 -17199062.948 17457185.271 10 0 59651 81900.00000 0 -6956760.158 -19214873.297 15231378.190 10 0 59651 82800.00000 0 -7033077.612 -20937888.950 12708998.984 10 0 59651 83700.00000 0 -7206933.682 -22326083.199 9939020.604 10 0 59651 84600.00000 0 -7429567.712 -23348510.134 6975310.566 10 0 59651 85500.00000 0 -7648220.939 -23986471.448 3875579.471 10 0 59652 0.00000 0 -7808595.123 -24234183.792 700248.299 10 0 59652 900.00000 0 -7857389.025 -24098917.481 -2488744.237 10 0 59652 1800.00000 0 -7744802.979 -23600599.735 -5629165.147 10 0 59652 2700.00000 0 -7426903.211 -22770899.517 -8659721.466 10 0 59652 3600.00000 0 -6867742.935 -21651832.712 -11521275.005 10 0 59652 4500.00000 0 -6041148.081 -20293947.813 -14158013.440 10 0 59652 5400.00000 0 -4932089.958 -18754170.223 -16518552.854 10 0 59652 6300.00000 0 -3537585.237 -17093397.874 -18556948.854 10 0 59652 7200.00000 0 -1867084.257 -15373951.329 -20233595.569 10 0 59652 8100.00000 0 57669.182 -13656987.255 -21515994.797 10 0 59652 9000.00000 0 2203300.636 -11999985.123 -22379380.583 10 0 59652 9900.00000 0 4525962.153 -10454413.176 -22807187.855 10 0 59652 10800.00000 0 6972934.679 -9063671.299 -22791357.268 10 0 59652 11700.00000 0 9484608.080 -7861395.974 -22332471.816 10 0 59652 12600.00000 0 11996755.543 -6870196.653 -21439724.215 10 0 59652 13500.00000 0 14443007.286 -6100874.177 -20130717.319 10 0 59652 14400.00000 0 16757420.703 -5552151.327 -18431102.970 10 0 59652 15300.00000 0 18877040.425 -5210924.054 -16374067.575 10 0 59652 16200.00000 0 20744342.807 -5053020.141 -13999675.423 10 0 59652 17100.00000 0 22309464.498 -5044431.029 -11354083.138 10 0 59652 18000.00000 0 23532123.969 -5142963.180 -8488640.924 10 0 59652 18900.00000 0 24383157.890 -5300238.098 -5458898.073 10 0 59652 19800.00000 0 24845610.270 -5463956.095 -2323531.728 10 0 59652 20700.00000 0 24915330.726 -5580328.262 856780.730 10 0 59652 21600.00000 0 24601058.538 -5596574.433 4020524.638 10 0 59652 22500.00000 0 23923990.148 -5463382.497 7106524.721 10 0 59652 23400.00000 0 22916848.920 -5137226.183 10055113.746 10 0 59652 24300.00000 0 21622496.187 -4582444.395 12809271.736 10 0 59652 25200.00000 0 20092141.298 -3772995.027 15315714.980 10 0 59652 26100.00000 0 18383224.604 -2693809.570 17525914.940 10 0 59652 27000.00000 0 16557060.597 -1341691.077 19397028.527 10 0 59652 27900.00000 0 14676338.078 274283.355 20892722.724 10 0 59652 28800.00000 0 12802580.190 2132874.192 21983878.253 10 0 59652 29700.00000 0 10993668.777 4201302.900 22649159.052 10 0 59652 30600.00000 0 9301535.086 6436363.969 22875436.433 10 0 59652 31500.00000 0 7770112.351 8785982.137 22658059.166 10 0 59652 32400.00000 0 6433635.266 11191152.923 22000963.240 10 0 59652 33300.00000 0 5315357.419 13588188.452 20916617.734 10 0 59652 34200.00000 0 4426740.867 15911177.220 19425806.122 10 0 59652 35100.00000 0 3767152.569 18094556.978 17557245.269 10 0 59652 36000.00000 0 3324081.429 20075694.312 15347047.575 10 0 59652 36900.00000 0 3073867.847 21797363.233 12838034.900 10 0 59652 37800.00000 0 2982915.860 23210018.538 10078916.188 10 0 59652 38700.00000 0 3009337.154 24273767.501 7123343.753 10 0 59652 39600.00000 0 3104957.414 24959955.538 4028866.336 10 0 59652 40500.00000 0 3217599.381 25252297.536 855799.589 10 0 59652 41400.00000 0 3293544.551 25147505.636 -2333963.118 10 0 59652 42300.00000 0 3280067.315 24655385.794 -5478174.808 10 0 59652 43200.00000 0 3127931.733 23798398.379 -8515468.260 10 0 59652 44100.00000 0 2793742.599 22610701.260 -11386572.528 10 0 59652 45000.00000 0 2242048.639 21136716.364 -14035486.780 10 0 59652 45900.00000 0 1447106.537 19429281.268 -16410586.762 10 0 59652 46800.00000 0 394229.293 17547465.209 -18465640.912 10 0 59652 47700.00000 0 -919339.316 15554143.162 -20160715.324 10 0 59652 48600.00000 0 -2484061.791 13513431.579 -21462949.634 10 0 59652 49500.00000 0 -4278270.975 11488094.683 -22347188.983 10 0 59652 50400.00000 0 -6268853.888 9537030.885 -22796460.478 10 0 59652 51300.00000 0 -8412426.106 7712944.629 -22802286.143 10 0 59652 52200.00000 0 -10656946.779 6060300.357 -22364827.758 10 0 59652 53100.00000 0 -12943706.007 4613642.765 -21492862.415 10 0 59652 54000.00000 0 -15209601.113 3396351.409 -20203590.927 10 0 59652 54900.00000 0 -17389606.634 2419879.138 -18522284.322 10 0 59652 55800.00000 0 -19419335.222 1683503.313 -16481776.633 10 0 59652 56700.00000 0 -21237583.318 1174597.250 -14121814.816 10 0 59652 57600.00000 0 -22788756.567 869407.680 -11488279.115 10 0 59652 58500.00000 0 -24025075.148 734303.219 -8632289.423 10 0 59652 59400.00000 0 -24908468.674 727439.436 -5609215.014 10 0 59652 60300.00000 0 -25412083.324 800769.193 -2477606.567 10 0 59652 61200.00000 0 -25521339.884 902312.977 701929.197 10 0 59652 62100.00000 0 -25234500.039 978593.444 3867891.241 10 0 59652 63000.00000 0 -24562718.362 977131.941 6959060.739 10 0 59652 63900.00000 0 -23529578.564 848902.457 9915670.595 10 0 59652 64800.00000 0 -22170133.563 550640.335 12680546.568 10 0 59652 65700.00000 0 -20529489.154 46909.181 15200199.172 10 0 59652 66600.00000 0 -18660989.566 -688160.643 17425846.404 10 0 59652 67500.00000 0 -16624079.376 -1669535.146 19314348.710 10 0 59652 68400.00000 0 -14481929.322 -2900398.280 20829039.097 10 0 59652 69300.00000 0 -12298923.282 -4371770.121 21940432.988 10 0 59652 70200.00000 0 -10138109.355 -6062639.620 22626804.505 10 0 59652 71100.00000 0 -8058719.608 -7940608.879 22874617.932 10 0 59652 72000.00000 0 -6113860.583 -9963024.848 22678805.477 10 0 59652 72900.00000 0 -4348469.956 -12078554.204 22042884.967 10 0 59652 73800.00000 0 -2797624.112 -14229138.619 20978913.767 10 0 59652 74700.00000 0 -1485267.479 -16352251.291 19507278.082 10 0 59652 75600.00000 0 -423417.171 -18383362.579 17656319.782 10 0 59652 76500.00000 0 388123.003 -20258513.018 15461806.005 10 0 59652 77400.00000 0 961526.246 -21916886.521 12966250.069 10 0 59652 78300.00000 0 1320193.388 -23303275.719 10218095.400 10 0 59652 79200.00000 0 1497521.496 -24370335.053 7270777.342 10 0 59652 80100.00000 0 1535242.343 -25080525.405 4181680.772 10 0 59652 81000.00000 0 1481401.518 -25407666.635 1011014.096 10 0 59652 81900.00000 0 1388064.832 -25338030.814 -2179377.622 10 0 59652 82800.00000 0 1308850.847 -24870928.338 -5327235.681 10 0 59652 83700.00000 0 1296396.323 -24018761.023 -8371121.290 10 0 59652 84600.00000 0 1399864.452 -22806539.256 -11251633.555 10 0 59652 85500.00000 0 1662604.041 -21270883.594 -13912585.998 10 0 59653 0.00000 0 2120061.101 -19458553.679 -16302116.685 10 0 59653 900.00000 0 2798033.562 -17424566.506 -18373710.086 10 0 59653 1800.00000 0 3711343.709 -15229987.157 -20087106.603 10 0 59653 2700.00000 0 4862986.163 -12939483.059 -21409086.001 10 0 59653 3600.00000 0 6243787.086 -10618748.040 -22314106.438 10 0 59653 4500.00000 0 7832588.981 -8331904.138 -22784788.706 10 0 59653 5400.00000 0 9596952.714 -6138990.328 -22812237.271 10 0 59653 6300.00000 0 11494346.554 -4093642.689 -22396193.337 10 0 59653 7200.00000 0 13473771.481 -2241061.851 -21545018.591 10 0 59653 8100.00000 0 15477754.047 -616350.681 -20275511.630 10 0 59653 9000.00000 0 17444622.971 756710.862 -18612562.117 10 0 59653 9900.00000 0 19310974.148 1866405.306 -16588650.761 10 0 59653 10800.00000 0 21014221.398 2713303.913 -14243205.836 10 0 59653 11700.00000 0 22495127.094 3309973.157 -11621829.454 10 0 59653 12600.00000 0 23700207.983 3680176.510 -8775409.034 10 0 59653 13500.00000 0 24583916.997 3857607.426 -5759131.274 10 0 59653 14400.00000 0 25110511.386 3884208.561 -2631417.520 10 0 59653 15300.00000 0 25255530.535 3808149.058 547199.277 10 0 59653 16200.00000 0 25006823.056 3681545.597 3715234.961 10 0 59653 17100.00000 0 24365081.298 3558023.177 6811430.419 10 0 59653 18000.00000 0 23343861.593 3490217.920 9775921.887 10 0 59653 18900.00000 0 21969089.628 3527326.387 12551383.890 10 0 59653 19800.00000 0 20278071.221 3712803.879 15084123.967 10 0 59653 20700.00000 0 18318049.006 4082307.929 17325109.181 10 0 59653 21600.00000 0 16144363.868 4661973.222 19230905.752 10 0 59653 22500.00000 0 13818296.054 5467090.636 20764514.636 10 0 59653 23400.00000 0 11404674.008 6501246.643 21896087.564 10 0 59653 24300.00000 0 8969348.419 7755960.595 22603510.099 10 0 59653 25200.00000 0 6576634.694 9210837.134 22872840.380 10 0 59653 26100.00000 0 4286828.642 10834229.834 22698594.521 10 0 59653 27000.00000 0 2153897.517 12584391.114 22083872.220 10 0 59653 27900.00000 0 223441.705 14411063.230 21040318.697 10 0 59653 28800.00000 0 -1468988.156 16257446.458 19587921.996 10 0 59653 29700.00000 0 -2899148.276 18062464.405 17754647.653 10 0 59653 30600.00000 0 -4054879.950 19763233.292 15575915.805 10 0 59653 31500.00000 0 -4936375.529 21297632.549 13093929.132 10 0 59653 32400.00000 0 -5555920.241 22606869.002 10356863.161 10 0 59653 33300.00000 0 -5937120.134 23637926.189 7417933.635 10 0 59653 34200.00000 0 -6113648.416 24345794.408 4334358.768 10 0 59653 35100.00000 0 -6127563.404 24695385.758 1166236.769 10 0 59653 36000.00000 0 -6027270.074 24663051.405 -2024638.619 10 0 59653 36900.00000 0 -5865212.908 24237635.042 -5175999.997 10 0 59653 37800.00000 0 -5695399.763 23421016.425 -8226339.963 10 0 59653 38700.00000 0 -5570864.012 22228120.816 -11116130.482 10 0 59653 39600.00000 0 -5541174.963 20686393.355 -13789002.029 10 0 59653 40500.00000 0 -5650104.474 18834760.589 -16192857.721 10 0 59653 41400.00000 0 -5933550.641 16722123.458 -18280899.223 10 0 59653 42300.00000 0 -6417808.070 14405446.271 -20012543.411 10 0 59653 43200.00000 0 -7118258.873 11947523.137 -21354211.560 10 0 59653 44100.00000 0 -8038540.135 9414516.792 -22279975.900 10 0 59653 45000.00000 0 -9170222.771 6873373.901 -22772051.618 10 0 59653 45900.00000 0 -10493014.737 4389225.445 -22821125.969 10 0 59653 46800.00000 0 -11975479.161 2022880.635 -22426519.538 10 0 59653 47700.00000 0 -13576236.154 -171481.809 -21596178.157 10 0 59653 48600.00000 0 -15245596.907 -2148330.262 -20346497.335 10 0 59653 49500.00000 0 -16927560.798 -3872422.789 -18701984.091 10 0 59653 50400.00000 0 -18562091.326 -5320009.814 -16694764.167 10 0 59653 51300.00000 0 -20087575.490 -6479549.715 -14363945.221 10 0 59653 52200.00000 0 -21443364.009 -7351910.583 -11754849.058 10 0 59653 53100.00000 0 -22572286.703 -7950052.662 -8918128.301 10 0 59653 54000.00000 0 -23423038.816 -8298207.506 -5908784.676 10 0 59653 54900.00000 0 -23952339.585 -8430590.497 -2785107.740 10 0 59653 55800.00000 0 -24126773.995 -8389702.392 392445.794 10 0 59653 56700.00000 0 -23924241.884 -8224292.283 3562411.131 10 0 59653 57600.00000 0 -23334954.710 -7987068.037 6663491.357 10 0 59653 58500.00000 0 -22361938.996 -7732250.392 9635728.508 10 0 59653 59400.00000 0 -21021025.583 -7513073.098 12421648.295 10 0 59653 60300.00000 0 -19340324.837 -7379333.576 14967357.608 10 0 59653 61200.00000 0 -17359208.871 -7375096.293 17223574.746 10 0 59653 62100.00000 0 -15126841.930 -7536644.868 19146573.644 10 0 59653 63000.00000 0 -12700318.302 -7890768.684 20699024.866 10 0 59653 63900.00000 0 -10142483.318 -8453456.213 21850717.771 10 0 59653 64800.00000 0 -7519525.806 -9229050.735 22579150.324 10 0 59653 65700.00000 0 -4898439.881 -10209905.305 22869975.111 10 0 59653 66600.00000 0 -2344459.667 -11376553.441 22717292.411 10 0 59653 67500.00000 0 81428.081 -12698390.785 22123783.721 10 0 59653 68400.00000 0 2324791.199 -14134841.868 21100681.763 10 0 59653 69300.00000 0 4339783.689 -15636965.701 19667575.804 10 0 59653 70200.00000 0 6090817.143 -17149435.282 17852054.176 10 0 59653 71100.00000 0 7553801.927 -18612809.902 15689188.893 10 0 59653 72000.00000 0 8716905.506 -19966006.044 13220870.610 10 0 59653 72900.00000 0 9580795.383 -21148863.463 10495005.288 10 0 59653 73800.00000 0 10158355.782 -22104698.121 7564587.143 10 0 59653 74700.00000 0 10473889.469 -22782733.285 4486665.536 10 0 59653 75600.00000 0 10561838.420 -23140304.579 1321226.093 10 0 59653 76500.00000 0 10465077.896 -23144743.835 -1869991.325 10 0 59653 77400.00000 0 10232857.171 -22774860.000 -5024713.281 10 0 59653 78300.00000 0 9918475.798 -22021952.474 -8081366.493 10 0 59653 79200.00000 0 9576795.919 -20890312.406 -10980298.522 10 0 59653 80100.00000 0 9261698.393 -19397189.630 -13664959.504 10 0 59653 81000.00000 0 9023592.857 -17572226.145 -16083020.011 10 0 59653 81900.00000 0 8907089.333 -15456380.044 -18187401.787 10 0 59653 82800.00000 0 8948931.657 -13100385.834 -19937200.167 10 0 59653 83700.00000 0 9176281.280 -10562816.782 -21298479.851 10 0 59653 84600.00000 0 9605424.511 -7907831.579 -22244928.677 10 0 59653 85500.00000 0 10240957.629 -5202700.739 -22758357.360 99